Amateur Radio Satellites - All Passes

Search period start: 18 June 2013 00:03
Search period end: 19 June 2013 00:03
Location: ActonStarParty, 42.4766°N, 71.4538°W

Satellite Date Start Highest point End Downlink Frequencies (MHz)
Time Altitude Azimuth
Sapphire 18 Jun 00:11:51 00:15:24 18° 105° (ESE) 00:18:58 437.095 MHz 1200 baud AX-25 AFSK
OPAL 18 Jun 00:15:33 00:16:40 11° 269° (W) 00:17:47 ?
SO-50 18 Jun 00:43:13 00:46:19 17° 110° (ESE) 00:49:24 436.795 FM
Oscar 16 18 Jun 01:09:33 01:11:15 12° 88° (E) 01:12:56 437.025 USB, Beacon 2401.1428
PCSat 18 Jun 01:18:22 01:23:44 71° 117° (ESE) 01:29:10 145.825 MHz
Uribyol 2 18 Jun 01:20:42 01:21:36 10° 87° (E) 01:22:30 436.500 FM
KITSAT 1 18 Jun 01:25:30 01:32:49 35° 43° (NE) 01:40:05 435.175 FM
Oscar 10/S400 18 Jun 01:52:00 07:05:47 71° 184° (S) 12:18:08 145.825 - 145.975 CW/USB, Beacon 145.810 USB
Sapphire 18 Jun 01:52:54 01:58:16 66° 303° (WNW) 02:03:41 437.095 MHz 1200 baud AX-25 AFSK
Oscar 19 18 Jun 02:01:37 02:06:13 32° 96° (E) 02:10:46 437.125 CW, 437.150 USB
SO-50 18 Jun 02:21:48 02:26:30 60° 307° (NW) 02:31:10 436.795 FM
ITAMSAT 1 18 Jun 02:22:46 02:27:43 41° 98° (E) 02:32:38 435.822 SSB
AO-27 18 Jun 02:23:27 02:28:27 43° 99° (E) 02:33:24 436.795 MHz FM
Oscar 16 18 Jun 02:46:06 02:51:16 84° 285° (WNW) 02:56:23 437.025 USB, Beacon 2401.1428
Uribyol 2 18 Jun 02:56:33 03:01:49 88° 104° (ESE) 03:07:01 436.500 FM
PCSat 18 Jun 03:03:39 03:07:43 21° 317° (NW) 03:11:50 145.825 MHz
TMSAT-1 18 Jun 03:13:41 03:14:54 11° 87° (E) 03:16:08 436.925 FM
AO-Echo 18 Jun 03:16:04 03:21:05 51° 100° (E) 03:26:11 ?
KITSAT 1 18 Jun 03:20:44 03:28:46 66° 244° (WSW) 03:36:45 435.175 FM
Uosat F 18 Jun 03:34:49 03:39:09 28° 95° (E) 03:43:27 435.120 FM
Sapphire 18 Jun 03:40:05 03:42:48 14° 324° (NW) 03:45:31 437.095 MHz 1200 baud AX-25 AFSK
Oscar 19 18 Jun 03:41:02 03:45:31 32° 293° (WNW) 03:49:58 437.125 CW, 437.150 USB
Gurwin Techsat 1B 18 Jun 03:50:09 03:55:05 37° 97° (E) 03:59:59 435.225 FM
ITAMSAT 1 18 Jun 04:02:43 04:07:01 26° 295° (WNW) 04:11:17 435.822 SSB
AO-27 18 Jun 04:03:30 04:07:44 26° 296° (WNW) 04:11:57 436.795 MHz FM
SO-50 18 Jun 04:06:13 04:08:06 12° 327° (NNW) 04:09:57 436.795 FM
UOSAT-12 18 Jun 04:11:34 04:15:50 44° 117° (ESE) 04:20:09 437.025 FM, 437.400 FM
Oscar 16 18 Jun 04:28:06 04:29:48 12° 303° (WNW) 04:31:30 437.025 USB, Beacon 2401.1428
Uribyol 2 18 Jun 04:38:09 04:40:33 13° 302° (WNW) 04:42:56 436.500 FM
TMSAT-1 18 Jun 04:50:13 04:55:34 88° 104° (ESE) 05:00:53 436.925 FM
AO-Echo 18 Jun 04:55:43 04:59:31 22° 296° (WNW) 05:03:24 ?
STRAND 1 18 Jun 04:57:36 05:00:46 17° 60° (ENE) 05:03:58 ?
Uosat F 18 Jun 05:13:24 05:17:59 36° 292° (WNW) 05:22:33 435.120 FM
KITSAT 1 18 Jun 05:20:10 05:22:35 12° 263° (W) 05:25:00 435.175 FM
Gurwin Techsat 1B 18 Jun 05:30:23 05:34:56 29° 294° (WNW) 05:39:27 435.225 FM
AO-7 18 Jun 05:31:18 05:39:33 57° 103° (ESE) 05:47:42 29.400 - 29.500 MHz
UOSAT-12 18 Jun 05:52:26 05:56:11 25° 316° (NW) 05:59:59 437.025 FM, 437.400 FM
MaSat-1 18 Jun 05:55:16 05:57:40 37° 248° (WSW) 06:00:02 437.345 MHz
TMSAT-1 18 Jun 06:32:15 06:34:45 14° 302° (WNW) 06:37:14 436.925 FM
STRAND 1 18 Jun 06:34:20 06:39:25 68° 258° (WSW) 06:44:34 ?
Saudisat 1A 18 Jun 06:46:21 06:50:40 41° 50° (NE) 06:54:54 436.775 MHz
JAS-1B 18 Jun 07:13:09 07:17:39 22° 95° (E) 07:22:32 435.800 - 435.900 CW/SSB
AO-7 18 Jun 07:24:37 07:31:58 36° 302° (WNW) 07:39:17 29.400 - 29.500 MHz
Hamsat 18 Jun 07:34:46 07:39:06 56° 100° (E) 07:43:22 145.90 MHz
SO-67 18 Jun 07:42:19 07:44:56 19° 94° (E) 07:47:32 435.3500 MHz FM
PCSat 18 Jun 08:24:00 08:26:41 14° 36° (NE) 08:29:22 145.825 MHz
Saudisat 1A 18 Jun 08:26:32 08:30:08 24° 248° (WSW) 08:33:41 436.775 MHz
HO-68 18 Jun 08:32:15 08:33:45 11° 86° (E) 08:35:14 435.675 MHz FM
Sapphire 18 Jun 08:57:42 09:01:46 21° 43° (NE) 09:05:50 437.095 MHz 1200 baud AX-25 AFSK
JAS-1B 18 Jun 09:03:00 09:08:37 54° 289° (WNW) 09:14:53 435.800 - 435.900 CW/SSB
Hamsat 18 Jun 09:12:12 09:14:42 15° 297° (WNW) 09:17:12 145.90 MHz
SO-50 18 Jun 09:13:29 09:17:01 22° 42° (NE) 09:20:30 436.795 FM
SO-67 18 Jun 09:15:21 09:18:23 26° 290° (WNW) 09:21:25 435.3500 MHz FM
JAS-2 18 Jun 09:22:27 09:26:20 20° 91° (E) 09:30:03 435.800 - 435.900 CW/SSB, 435.910 FM
PCSat 18 Jun 10:05:48 10:11:13 65° 57° (ENE) 10:16:36 145.825 MHz
RS-15 18 Jun 10:13:56 10:22:28 23° 101° (E) 10:30:44 29.354 - 29.394 USB, Beacon 29.352 USB
HO-68 18 Jun 10:15:30 10:22:41 68° 104° (ESE) 10:29:50 435.675 MHz FM
Sapphire 18 Jun 10:40:21 10:45:46 72° 243° (WSW) 10:51:10 437.095 MHz 1200 baud AX-25 AFSK
OPAL 18 Jun 10:42:14 10:45:56 21° 95° (E) 10:49:39 ?
Oscar 11 18 Jun 10:48:09 10:52:33 86° 284° (WNW) 10:56:56 145.825 FM, Beacon 2401.500 USB
SO-50 18 Jun 10:53:32 10:57:57 54° 241° (WSW) 11:02:19 436.795 FM
UOSAT-12 18 Jun 11:03:24 11:03:39 10° 30° (NNE) 11:03:53 437.025 FM, 437.400 FM
JAS-2 18 Jun 11:06:35 11:11:52 49° 290° (WNW) 11:16:50 435.800 - 435.900 CW/SSB, 435.910 FM
PCSat 18 Jun 11:50:28 11:54:06 18° 255° (WSW) 11:57:43 145.825 MHz
HO-68 18 Jun 12:04:08 12:09:47 26° 303° (WNW) 12:15:26 435.675 MHz FM
OPAL 18 Jun 12:20:19 12:25:04 47° 292° (WNW) 12:29:49 ?
RS-15 18 Jun 12:21:17 12:33:20 88° 121° (ESE) 12:44:52 29.354 - 29.394 USB, Beacon 29.352 USB
Oscar 16 18 Jun 12:26:20 12:30:03 20° 63° (ENE) 12:33:46 437.025 USB, Beacon 2401.1428
Uribyol 2 18 Jun 12:37:47 12:41:25 19° 62° (ENE) 12:45:04 436.500 FM
UOSAT-12 18 Jun 12:40:29 12:44:58 47° 51° (NE) 12:49:25 437.025 FM, 437.400 FM
Oscar 19 18 Jun 13:19:05 13:24:04 50° 71° (ENE) 13:29:03 437.125 CW, 437.150 USB
ITAMSAT 1 18 Jun 13:41:25 13:46:34 67° 73° (ENE) 13:51:46 435.822 SSB
AO-27 18 Jun 13:42:15 13:47:25 70° 73° (ENE) 13:52:38 436.795 MHz FM
Oscar 16 18 Jun 14:03:56 14:09:01 55° 260° (W) 14:14:06 437.025 USB, Beacon 2401.1428
Uribyol 2 18 Jun 14:15:18 14:20:27 59° 259° (W) 14:25:38 436.500 FM
UOSAT-12 18 Jun 14:21:21 14:24:50 21° 248° (WSW) 14:28:18 437.025 FM, 437.400 FM
AO-Echo 18 Jun 14:30:06 14:34:45 68° 74° (ENE) 14:39:32 ?
TMSAT-1 18 Jun 14:33:51 14:37:38 20° 62° (ENE) 14:41:25 436.925 FM
RS-15 18 Jun 14:36:46 14:47:16 35° 327° (NNW) 14:57:25 29.354 - 29.394 USB, Beacon 29.352 USB
AO-7 18 Jun 14:42:01 14:47:27 20° 48° (NE) 14:52:54 29.400 - 29.500 MHz
Uosat F 18 Jun 14:48:45 14:53:25 41° 69° (ENE) 14:58:08 435.120 FM
Oscar 19 18 Jun 14:59:54 15:03:41 20° 268° (W) 15:07:29 437.125 CW, 437.150 USB
Gurwin Techsat 1B 18 Jun 15:11:52 15:17:05 62° 72° (ENE) 15:22:21 435.225 FM
ITAMSAT 1 18 Jun 15:23:31 15:26:33 16° 270° (W) 15:29:37 435.822 SSB
AO-27 18 Jun 15:24:34 15:27:27 15° 270° (W) 15:30:21 436.795 MHz FM
KITSAT 1 18 Jun 15:58:03 16:02:43 17° 100° (E) 16:07:24 435.175 FM
TMSAT-1 18 Jun 16:11:55 16:17:07 57° 259° (W) 16:22:22 436.925 FM
AO-Echo 18 Jun 16:12:02 16:14:06 13° 271° (W) 16:16:11 ?
Uosat F 18 Jun 16:28:23 16:32:23 24° 266° (W) 16:36:24 435.120 FM
AO-7 18 Jun 16:30:39 16:38:57 78° 69° (ENE) 16:47:20 29.400 - 29.500 MHz
ISS 18 Jun 16:34:13 16:37:30 84° 146° (SSE) 16:40:48 145.800 FM
Gurwin Techsat 1B 18 Jun 16:54:05 16:57:30 17° 269° (W) 17:00:55 435.225 FM
RS-15 18 Jun 16:55:50 17:04:21 23° 2° (N) 17:12:37 29.354 - 29.394 USB, Beacon 29.352 USB
KITSAT 1 18 Jun 17:48:49 17:56:53 83° 119° (ESE) 18:05:01 435.175 FM
JAS-1B 18 Jun 18:00:22 18:05:21 23° 63° (ENE) 18:09:54 435.800 - 435.900 CW/SSB
ISS 18 Jun 18:11:49 18:14:30 23° 343° (NNW) 18:17:12 145.800 FM
AO-7 18 Jun 18:26:18 18:32:32 23° 268° (W) 18:38:50 29.400 - 29.500 MHz
Hamsat 18 Jun 18:29:21 18:33:28 43° 72° (ENE) 18:37:38 145.90 MHz
STRAND 1 18 Jun 18:44:35 18:49:25 39° 98° (E) 18:54:13 ?
MaSat-1 18 Jun 18:45:42 18:49:21 18° 108° (ESE) 18:52:32 437.345 MHz
HO-68 18 Jun 19:03:09 19:05:11 11° 47° (NE) 19:07:14 435.675 MHz FM
RS-15 18 Jun 19:10:46 19:21:05 39° 36° (NE) 19:31:04 29.354 - 29.394 USB, Beacon 29.352 USB
JAS-2 18 Jun 19:36:29 19:40:07 15° 57° (ENE) 19:43:33 435.800 - 435.900 CW/SSB, 435.910 FM
KITSAT 1 18 Jun 19:46:26 19:53:14 29° 322° (NW) 20:00:05 435.175 FM
JAS-1B 18 Jun 19:48:43 19:55:43 61° 258° (WSW) 20:01:45 435.800 - 435.900 CW/SSB
ISS 18 Jun 19:49:49 19:52:02 17° 4° (N) 19:54:16 145.800 FM
SO-67 18 Jun 19:51:01 19:54:34 66° 259° (W) 19:58:08 435.3500 MHz FM
Hamsat 18 Jun 20:06:51 20:09:45 17° 268° (W) 20:12:41 145.90 MHz
STRAND 1 18 Jun 20:24:09 20:28:26 27° 295° (WNW) 20:32:43 ?
MaSat-1 18 Jun 20:25:38 20:31:05 57° 298° (WNW) 20:35:18 437.345 MHz
HO-68 18 Jun 20:44:26 20:51:20 55° 67° (ENE) 20:58:16 435.675 MHz FM
JAS-2 18 Jun 21:16:51 21:24:16 74° 73° (ENE) 21:30:55 435.800 - 435.900 CW/SSB, 435.910 FM
RS-15 18 Jun 21:23:24 21:34:25 74° 242° (WSW) 21:45:12 29.354 - 29.394 USB, Beacon 29.352 USB
ISS 18 Jun 21:26:25 21:29:27 33° 24° (NNE) 21:32:28 145.800 FM
Oscar 11 18 Jun 21:43:51 21:48:13 82° 76° (ENE) 21:52:37 145.825 FM, Beacon 2401.500 USB
KITSAT 1 18 Jun 21:48:25 21:51:57 13° 351° (N) 21:55:30 435.175 FM
OPAL 18 Jun 21:57:32 22:02:14 41° 67° (ENE) 22:06:55 ?
Saudisat 1A 18 Jun 22:33:13 22:37:46 79° 122° (ESE) 22:42:24 436.775 MHz
HO-68 18 Jun 22:33:16 22:39:19 30° 265° (W) 22:45:26 435.675 MHz FM
ISS 18 Jun 23:03:05 23:06:10 37° 221° (SW) 23:09:14 145.800 FM
JAS-2 18 Jun 23:04:21 23:09:42 21° 268° (W) 23:14:43 435.800 - 435.900 CW/SSB, 435.910 FM
PANSAT 18 Jun 23:31:50 23:32:20 10° 180° (S) 23:32:50 not established
OPAL 18 Jun 23:37:14 23:41:16 24° 263° (W) 23:45:18 ?
RS-15 18 Jun 23:38:54 23:44:36 16° 263° (W) 23:50:18 29.354 - 29.394 USB, Beacon 29.352 USB
Sapphire 18 Jun 23:43:02 23:45:20 13° 102° (ESE) 23:47:38 437.095 MHz 1200 baud AX-25 AFSK
KITSAT 1 18 Jun 23:46:35 23:51:31 17° 22° (NNE) 23:56:27 435.175 FM

Developed and maintained by Chris Peat, Heavens-Above GmbH. Please read the updated FAQ before sending e-mail. Imprint. DLR
